Time,TemperatureF,DewpointF,PressureIn,WindDirection,WindDirectionDegrees,WindSpeedMPH,WindSpeedGustMPH,Humidity,HourlyPrecipIn,Conditions,Clouds,dailyrainin,SoftwareType,DateUTC
2013-04-09 00:02:00,68.0,64.6,30.10,NNW,333,0.0,2.0,89,0.00,,,0.00,meteohub,2013-04-09 04:02:00,
2013-04-09 00:07:00,68.0,64.6,30.09,NNW,332,0.0,2.0,89,0.00,,,0.00,meteohub,2013-04-09 04:07:00,
2013-04-09 00:12:00,68.2,64.8,30.09,North,355,1.0,2.0,89,0.00,,,0.00,meteohub,2013-04-09 04:12:00,
2013-04-09 00:17:00,68.2,64.4,30.09,ENE,69,2.0,3.0,88,0.00,,,0.00,meteohub,2013-04-09 04:17:00,
2013-04-09 00:22:00,68.4,64.4,30.09,East,86,2.0,5.0,87,0.00,,,0.00,meteohub,2013-04-09 04:22:00,
2013-04-09 00:27:00,68.5,64.6,30.09,East,92,2.0,6.0,87,0.00,,,0.00,meteohub,2013-04-09 04:27:00,
2013-04-09 00:32:00,68.7,64.4,30.09,ESE,105,3.0,6.0,86,0.00,,,0.00,meteohub,2013-04-09 04:32:00,
2013-04-09 00:37:00,69.4,64.8,30.09,SE,129,4.0,9.0,85,0.00,,,0.00,meteohub,2013-04-09 04:37:00,
2013-04-09 00:42:00,70.2,64.4,30.09,SE,142,3.0,10.0,82,0.00,,,0.00,meteohub,2013-04-09 04:42:00,
2013-04-09 00:47:00,70.7,64.6,30.09,SE,142,3.0,13.0,81,0.00,,,0.00,meteohub,2013-04-09 04:47:00,
2013-04-09 00:52:00,71.1,64.2,30.09,SE,142,6.0,13.0,79,0.00,,,0.00,meteohub,2013-04-09 04:52:00,
2013-04-09 00:57:00,71.2,64.4,30.09,ESE,107,0.0,13.0,79,0.00,,,0.00,meteohub,2013-04-09 04:57:00,
2013-04-09 01:07:00,71.1,64.2,30.08,SE,128,2.0,11.0,79,0.00,,,0.00,meteohub,2013-04-09 05:07:00,
2013-04-09 01:12:00,71.1,64.2,30.08,SE,145,3.0,9.0,79,0.00,,,0.00,meteohub,2013-04-09 05:12:00,
2013-04-09 01:22:00,70.9,64.0,30.08,ESE,122,1.0,9.0,79,0.00,,,0.00,meteohub,2013-04-09 05:22:00,
2013-04-09 01:27:00,70.9,64.4,30.08,SSE,151,1.0,9.0,80,0.00,,,0.00,meteohub,2013-04-09 05:27:00,
2013-04-09 01:37:00,70.7,64.2,30.08,SE,127,4.0,9.0,80,0.00,,,0.00,meteohub,2013-04-09 05:37:00,
2013-04-09 01:42:00,70.7,64.6,30.07,East,94,7.0,8.0,81,0.00,,,0.00,meteohub,2013-04-09 05:42:00,
2013-04-09 01:52:00,70.3,64.2,30.07,SE,144,4.0,7.0,81,0.00,,,0.00,meteohub,2013-04-09 05:52:00,
2013-04-09 01:57:00,70.3,64.2,30.07,SE,133,8.0,8.0,81,0.00,,,0.00,meteohub,2013-04-09 05:57:00,
2013-04-09 02:07:00,70.2,64.4,30.07,SE,138,5.0,8.0,82,0.00,,,0.00,meteohub,2013-04-09 06:07:00,
2013-04-09 02:12:00,70.2,64.4,30.07,SSE,151,2.0,8.0,82,0.00,,,0.00,meteohub,2013-04-09 06:12:00,
2013-04-09 02:17:00,70.2,64.8,30.06,SSE,157,1.0,9.0,83,0.00,,,0.00,meteohub,2013-04-09 06:17:00,
2013-04-09 02:22:00,70.0,64.6,30.06,SE,139,1.0,9.0,83,0.00,,,0.00,meteohub,2013-04-09 06:22:00,
2013-04-09 02:27:00,70.0,64.6,30.06,SE,146,3.0,9.0,83,0.00,,,0.00,meteohub,2013-04-09 06:27:00,
2013-04-09 02:32:00,70.0,64.6,30.06,SSE,153,3.0,10.0,83,0.00,,,0.00,meteohub,2013-04-09 06:32:00,
2013-04-09 02:42:00,69.8,64.4,30.06,SSE,158,5.0,8.0,83,0.00,,,0.00,meteohub,2013-04-09 06:42:00,
2013-04-09 02:47:00,69.6,64.2,30.06,SE,138,2.0,8.0,83,0.00,,,0.00,meteohub,2013-04-09 06:47:00,
2013-04-09 02:52:00,69.6,64.6,30.06,SE,134,2.0,7.0,84,0.00,,,0.00,meteohub,2013-04-09 06:52:00,
2013-04-09 02:57:00,69.6,64.6,30.06,SSE,151,0.0,7.0,84,0.00,,,0.00,meteohub,2013-04-09 06:57:00,
2013-04-09 03:07:00,69.4,64.8,30.06,SE,132,2.0,7.0,85,0.00,,,0.00,meteohub,2013-04-09 07:07:00,
2013-04-09 03:12:00,69.3,64.6,30.05,SE,138,6.0,8.0,85,0.00,,,0.00,meteohub,2013-04-09 07:12:00,
2013-04-09 03:17:00,69.4,64.8,30.05,SE,130,4.0,10.0,85,0.00,,,0.00,meteohub,2013-04-09 07:17:00,
2013-04-09 03:22:00,69.4,64.8,30.05,SE,134,3.0,10.0,85,0.00,,,0.00,meteohub,2013-04-09 07:22:00,
2013-04-09 03:27:00,69.3,64.6,30.05,SE,134,4.0,10.0,85,0.00,,,0.00,meteohub,2013-04-09 07:27:00,
2013-04-09 03:37:00,69.3,64.6,30.04,SE,136,5.0,9.0,85,0.00,,,0.00,meteohub,2013-04-09 07:37:00,
2013-04-09 03:42:00,69.3,64.6,30.05,SE,141,5.0,9.0,85,0.00,,,0.00,meteohub,2013-04-09 07:42:00,
2013-04-09 03:47:00,69.3,64.9,30.04,SE,146,4.0,11.0,86,0.00,,,0.00,meteohub,2013-04-09 07:47:00,
2013-04-09 03:52:00,69.3,64.6,30.04,SSE,148,3.0,11.0,85,0.00,,,0.00,meteohub,2013-04-09 07:52:00,
2013-04-09 04:02:00,69.1,64.8,30.04,SE,142,6.0,11.0,86,0.00,,,0.00,meteohub,2013-04-09 08:02:00,
2013-04-09 04:07:00,69.1,64.8,30.04,SSE,151,2.0,11.0,86,0.00,,,0.00,meteohub,2013-04-09 08:07:00,
2013-04-09 04:12:00,69.1,64.8,30.04,SE,146,5.0,8.0,86,0.00,,,0.00,meteohub,2013-04-09 08:12:00,
2013-04-09 04:17:00,68.9,64.9,30.04,SSE,148,2.0,7.0,87,0.00,,,0.00,meteohub,2013-04-09 08:17:00,
2013-04-09 04:22:00,68.7,64.8,30.04,SSE,147,4.0,6.0,87,0.00,,,0.00,meteohub,2013-04-09 08:22:00,
2013-04-09 04:27:00,68.7,64.8,30.04,SE,129,2.0,7.0,87,0.00,,,0.00,meteohub,2013-04-09 08:27:00,
2013-04-09 04:32:00,68.7,64.8,30.04,SSE,167,4.0,7.0,87,0.00,,,0.00,meteohub,2013-04-09 08:32:00,
2013-04-09 04:37:00,68.5,64.6,30.04,SSE,152,4.0,8.0,87,0.00,,,0.00,meteohub,2013-04-09 08:37:00,
2013-04-09 04:42:00,68.5,64.6,30.04,SE,137,2.0,8.0,87,0.00,,,0.00,meteohub,2013-04-09 08:42:00,
2013-04-09 04:47:00,68.5,64.8,30.04,SE,127,3.0,6.0,88,0.00,,,0.00,meteohub,2013-04-09 08:47:00,
2013-04-09 04:52:00,68.4,64.6,30.04,SSE,150,1.0,6.0,88,0.00,,,0.00,meteohub,2013-04-09 08:52:00,
2013-04-09 05:02:00,68.4,64.6,30.04,SSE,150,1.0,6.0,88,0.00,,,0.00,meteohub,2013-04-09 09:02:00,
2013-04-09 05:07:00,68.2,64.4,30.04,SE,136,2.0,5.0,88,0.00,,,0.00,meteohub,2013-04-09 09:07:00,
2013-04-09 05:12:00,68.2,64.4,30.04,SE,136,1.0,6.0,88,0.00,,,0.00,meteohub,2013-04-09 09:12:00,
2013-04-09 05:17:00,68.2,64.8,30.04,SE,136,1.0,6.0,89,0.00,,,0.00,meteohub,2013-04-09 09:17:00,
2013-04-09 05:27:00,67.8,64.4,30.04,SE,136,0.0,4.0,89,0.00,,,0.00,meteohub,2013-04-09 09:27:00,
2013-04-09 05:32:00,67.8,64.4,30.04,SE,136,0.0,4.0,89,0.00,,,0.00,meteohub,2013-04-09 09:32:00,
2013-04-09 05:37:00,67.6,64.2,30.04,SE,136,0.0,4.0,89,0.00,,,0.00,meteohub,2013-04-09 09:37:00,
2013-04-09 05:42:00,67.6,64.6,30.04,SE,136,0.0,3.0,90,0.00,,,0.00,meteohub,2013-04-09 09:42:00,
2013-04-09 05:47:00,67.6,64.6,30.05,SE,136,2.0,3.0,90,0.00,,,0.00,meteohub,2013-04-09 09:47:00,
2013-04-09 05:52:00,67.5,64.4,30.05,SE,136,1.0,3.0,90,0.00,,,0.00,meteohub,2013-04-09 09:52:00,
2013-04-09 05:57:00,67.5,64.4,30.05,SE,136,1.0,3.0,90,0.00,,,0.00,meteohub,2013-04-09 09:57:00,
2013-04-09 06:02:00,67.3,64.2,30.05,SE,136,1.0,3.0,90,0.00,,,0.00,meteohub,2013-04-09 10:02:00,
2013-04-09 06:07:00,67.3,64.6,30.05,SE,136,0.0,3.0,91,0.00,,,0.00,meteohub,2013-04-09 10:07:00,
2013-04-09 06:12:00,67.3,64.6,30.06,SE,136,0.0,2.0,91,0.00,,,0.00,meteohub,2013-04-09 10:12:00,
2013-04-09 06:17:00,67.3,64.6,30.06,SE,136,1.0,3.0,91,0.00,,,0.00,meteohub,2013-04-09 10:17:00,
2013-04-09 06:27:00,66.9,64.2,30.06,SE,136,1.0,3.0,91,0.00,,,0.00,meteohub,2013-04-09 10:27:00,
2013-04-09 06:32:00,66.9,64.2,30.06,SE,136,1.0,3.0,91,0.00,,,0.00,meteohub,2013-04-09 10:32:00,
2013-04-09 06:37:00,66.9,64.6,30.06,SE,136,1.0,3.0,92,0.00,,,0.00,meteohub,2013-04-09 10:37:00,
2013-04-09 06:42:00,66.7,64.4,30.06,SE,136,0.0,3.0,92,0.00,,,0.00,meteohub,2013-04-09 10:42:00,
2013-04-09 06:47:00,66.7,64.4,30.07,SE,136,1.0,3.0,92,0.00,,,0.00,meteohub,2013-04-09 10:47:00,
2013-04-09 06:57:00,66.6,64.2,30.07,SE,136,1.0,3.0,92,0.00,,,0.00,meteohub,2013-04-09 10:57:00,
2013-04-09 07:02:00,66.2,63.9,30.07,SE,136,0.0,3.0,92,0.00,,,0.00,meteohub,2013-04-09 11:02:00,
2013-04-09 07:07:00,65.8,63.5,30.08,SE,136,0.0,3.0,92,0.00,,,0.00,meteohub,2013-04-09 11:07:00,
2013-04-09 07:12:00,65.7,63.3,30.08,SE,136,1.0,3.0,92,0.00,,,0.00,meteohub,2013-04-09 11:12:00,
2013-04-09 07:22:00,65.5,63.3,30.08,ESE,123,3.0,3.0,93,0.00,,,0.00,meteohub,2013-04-09 11:22:00,
2013-04-09 07:27:00,65.5,63.3,30.08,ESE,115,0.0,4.0,93,0.00,,,0.00,meteohub,2013-04-09 11:27:00,
2013-04-09 07:32:00,65.5,63.3,30.08,ESE,115,0.0,4.0,93,0.00,,,0.00,meteohub,2013-04-09 11:32:00,
2013-04-09 07:37:00,65.7,63.5,30.08,ESE,115,2.0,4.0,93,0.00,,,0.00,meteohub,2013-04-09 11:37:00,
2013-04-09 07:42:00,65.8,63.7,30.08,ESE,115,0.0,3.0,93,0.00,,,0.00,meteohub,2013-04-09 11:42:00,
2013-04-09 07:47:00,66.0,63.9,30.08,ESE,115,1.0,3.0,93,0.00,,,0.00,meteohub,2013-04-09 11:47:00,
2013-04-09 07:52:00,66.2,64.0,30.09,ESE,115,0.0,3.0,93,0.00,,,0.00,meteohub,2013-04-09 11:52:00,
2013-04-09 07:57:00,66.6,64.2,30.09,ESE,115,4.0,4.0,92,0.00,,,0.00,meteohub,2013-04-09 11:57:00,
2013-04-09 08:07:00,66.7,64.0,30.09,ESE,113,0.0,4.0,91,0.00,,,0.00,meteohub,2013-04-09 12:07:00,
2013-04-09 08:17:00,67.5,64.8,30.09,SE,142,1.0,3.0,91,0.00,,,0.00,meteohub,2013-04-09 12:17:00,
2013-04-09 08:22:00,67.6,64.6,30.09,ESE,102,4.0,5.0,90,0.00,,,0.00,meteohub,2013-04-09 12:22:00,
2013-04-09 08:27:00,67.6,64.2,30.09,East,83,6.0,7.0,89,0.00,,,0.00,meteohub,2013-04-09 12:27:00,
2013-04-09 08:32:00,67.6,64.6,30.09,East,94,0.0,8.0,90,0.00,,,0.00,meteohub,2013-04-09 12:32:00,
2013-04-09 08:42:00,68.4,64.9,30.10,East,89,3.0,7.0,89,0.00,,,0.00,meteohub,2013-04-09 12:42:00,
2013-04-09 08:47:00,68.5,65.1,30.10,ESE,108,4.0,7.0,89,0.00,,,0.00,meteohub,2013-04-09 12:47:00,
2013-04-09 08:52:00,68.7,64.9,30.10,ESE,103,3.0,7.0,88,0.00,,,0.00,meteohub,2013-04-09 12:52:00,
2013-04-09 08:57:00,69.1,65.3,30.10,ESE,120,4.0,7.0,88,0.00,,,0.00,meteohub,2013-04-09 12:57:00,
2013-04-09 09:02:00,69.3,65.5,30.10,ENE,72,2.0,7.0,88,0.00,,,0.00,meteohub,2013-04-09 13:02:00,
2013-04-09 09:12:00,70.2,66.0,30.10,ESE,123,3.0,7.0,87,0.00,,,0.00,meteohub,2013-04-09 13:12:00,
2013-04-09 09:17:00,70.7,66.4,30.10,SE,144,2.0,7.0,86,0.00,,,0.00,meteohub,2013-04-09 13:17:00,
2013-04-09 09:22:00,70.9,66.2,30.10,ENE,78,2.0,10.0,85,0.00,,,0.00,meteohub,2013-04-09 13:22:00,
2013-04-09 09:27:00,70.9,66.2,30.10,East,86,5.0,10.0,85,0.00,,,0.00,meteohub,2013-04-09 13:27:00,
2013-04-09 09:32:00,71.1,66.4,30.11,ESE,106,1.0,10.0,85,0.00,,,0.00,meteohub,2013-04-09 13:32:00,
2013-04-09 09:37:00,71.4,66.7,30.11,ESE,111,3.0,10.0,85,0.00,,,0.00,meteohub,2013-04-09 13:37:00,
2013-04-09 09:42:00,72.1,67.5,30.11,ESE,105,1.0,10.0,85,0.00,,,0.00,meteohub,2013-04-09 13:42:00,
2013-04-09 09:52:00,73.0,67.3,30.11,ESE,107,9.0,10.0,82,0.00,,,0.00,meteohub,2013-04-09 13:52:00,
2013-04-09 09:57:00,73.2,67.1,30.11,ESE,110,3.0,10.0,81,0.00,,,0.00,meteohub,2013-04-09 13:57:00,
2013-04-09 10:02:00,73.6,67.1,30.11,SE,127,8.0,11.0,80,0.00,,,0.00,meteohub,2013-04-09 14:02:00,
2013-04-09 10:12:00,74.1,67.6,30.11,East,90,7.0,12.0,80,0.00,,,0.00,meteohub,2013-04-09 14:12:00,
2013-04-09 10:17:00,74.5,67.5,30.12,SE,142,7.0,12.0,79,0.00,,,0.00,meteohub,2013-04-09 14:17:00,
2013-04-09 10:22:00,74.3,67.3,30.12,ESE,110,0.0,12.0,79,0.00,,,0.00,meteohub,2013-04-09 14:22:00,
2013-04-09 10:27:00,74.5,67.5,30.12,SSE,168,4.0,11.0,79,0.00,,,0.00,meteohub,2013-04-09 14:27:00,
2013-04-09 10:32:00,74.8,67.5,30.12,East,88,3.0,10.0,78,0.00,,,0.00,meteohub,2013-04-09 14:32:00,
2013-04-09 10:37:00,74.8,67.5,30.12,East,88,10.0,10.0,78,0.00,,,0.00,meteohub,2013-04-09 14:37:00,
2013-04-09 10:42:00,75.0,67.6,30.12,South,187,7.0,14.0,78,0.00,,,0.00,meteohub,2013-04-09 14:42:00,
2013-04-09 10:47:00,75.6,67.8,30.12,SE,145,6.0,14.0,77,0.00,,,0.00,meteohub,2013-04-09 14:47:00,
2013-04-09 10:52:00,75.4,67.3,30.12,East,89,5.0,14.0,76,0.00,,,0.00,meteohub,2013-04-09 14:52:00,
2013-04-09 10:57:00,75.0,66.9,30.12,SE,138,2.0,12.0,76,0.00,,,0.00,meteohub,2013-04-09 14:57:00,
2013-04-09 11:02:00,75.0,66.6,30.12,SSE,160,3.0,13.0,75,0.00,,,0.00,meteohub,2013-04-09 15:02:00,
2013-04-09 11:07:00,75.6,67.1,30.12,SE,141,10.0,15.0,75,0.00,,,0.00,meteohub,2013-04-09 15:07:00,
2013-04-09 11:12:00,75.6,67.1,30.12,ESE,107,2.0,15.0,75,0.00,,,0.00,meteohub,2013-04-09 15:12:00,
2013-04-09 11:17:00,75.9,66.6,30.13,NE,46,4.0,15.0,73,0.00,,,0.00,meteohub,2013-04-09 15:17:00,
2013-04-09 11:22:00,75.7,66.0,30.13,ESE,115,10.0,17.0,72,0.00,,,0.00,meteohub,2013-04-09 15:22:00,
2013-04-09 11:32:00,76.3,66.2,30.13,SE,130,9.0,17.0,71,0.00,,,0.00,meteohub,2013-04-09 15:32:00,
2013-04-09 11:37:00,76.5,66.0,30.12,SE,140,8.0,14.0,70,0.00,,,0.00,meteohub,2013-04-09 15:37:00,
2013-04-09 11:42:00,77.2,66.2,30.12,SSE,154,3.0,14.0,69,0.00,,,0.00,meteohub,2013-04-09 15:42:00,
2013-04-09 11:47:00,77.2,66.2,30.12,ESE,108,4.0,14.0,69,0.00,,,0.00,meteohub,2013-04-09 15:47:00,
2013-04-09 11:57:00,78.1,67.1,30.12,ESE,107,3.0,15.0,69,0.00,,,0.00,meteohub,2013-04-09 15:57:00,
2013-04-09 12:02:00,78.3,67.3,30.12,ESE,105,0.0,15.0,69,0.00,,,0.00,meteohub,2013-04-09 16:02:00,
2013-04-09 12:07:00,78.4,66.9,30.12,East,91,5.0,15.0,68,0.00,,,0.00,meteohub,2013-04-09 16:07:00,
2013-04-09 12:17:00,78.4,66.2,30.12,SE,124,4.0,15.0,66,0.00,,,0.00,meteohub,2013-04-09 16:17:00,
2013-04-09 12:27:00,78.3,66.0,30.12,ENE,69,7.0,15.0,66,0.00,,,0.00,meteohub,2013-04-09 16:27:00,
2013-04-09 12:37:00,78.4,65.3,30.11,SSE,149,4.0,15.0,64,0.00,,,0.00,meteohub,2013-04-09 16:37:00,
2013-04-09 12:42:00,79.0,65.8,30.11,ENE,70,4.0,13.0,64,0.00,,,0.00,meteohub,2013-04-09 16:42:00,
2013-04-09 12:52:00,79.0,65.8,30.10,East,94,5.0,13.0,64,0.00,,,0.00,meteohub,2013-04-09 16:52:00,
2013-04-09 13:02:00,79.3,65.7,30.10,SE,136,8.0,14.0,63,0.00,,,0.00,meteohub,2013-04-09 17:02:00,
2013-04-09 13:07:00,79.3,66.0,30.10,South,188,3.0,14.0,64,0.00,,,0.00,meteohub,2013-04-09 17:07:00,
2013-04-09 13:17:00,79.5,65.8,30.09,ESE,121,7.0,12.0,63,0.00,,,0.00,meteohub,2013-04-09 17:17:00,
2013-04-09 13:27:00,80.2,65.5,30.09,ESE,119,10.0,13.0,61,0.00,,,0.00,meteohub,2013-04-09 17:27:00,
2013-04-09 13:32:00,79.9,65.3,30.08,SE,146,8.0,13.0,61,0.00,,,0.00,meteohub,2013-04-09 17:32:00,
2013-04-09 13:37:00,79.5,65.3,30.08,SE,142,7.0,13.0,62,0.00,,,0.00,meteohub,2013-04-09 17:37:00,
2013-04-09 13:47:00,79.9,65.7,30.08,SE,132,5.0,13.0,62,0.00,,,0.00,meteohub,2013-04-09 17:47:00,
2013-04-09 13:52:00,80.2,65.5,30.08,SSE,152,3.0,13.0,61,0.00,,,0.00,meteohub,2013-04-09 17:52:00,
2013-04-09 13:57:00,80.4,66.2,30.07,SSE,156,4.0,13.0,62,0.00,,,0.00,meteohub,2013-04-09 17:57:00,
2013-04-09 14:02:00,80.8,66.0,30.08,SSW,194,7.0,12.0,61,0.00,,,0.00,meteohub,2013-04-09 18:02:00,
2013-04-09 14:07:00,80.4,65.7,30.07,SSE,151,8.0,11.0,61,0.00,,,0.00,meteohub,2013-04-09 18:07:00,
2013-04-09 14:17:00,80.4,65.7,30.07,ESE,121,8.0,12.0,61,0.00,,,0.00,meteohub,2013-04-09 18:17:00,
2013-04-09 14:27:00,80.1,65.8,30.06,South,172,6.0,12.0,62,0.00,,,0.00,meteohub,2013-04-09 18:27:00,
2013-04-09 14:32:00,80.1,65.8,30.07,ESE,115,7.0,12.0,62,0.00,,,0.00,meteohub,2013-04-09 18:32:00,
2013-04-09 14:37:00,80.2,66.0,30.07,SE,126,4.0,11.0,62,0.00,,,0.00,meteohub,2013-04-09 18:37:00,
2013-04-09 14:47:00,81.9,65.7,30.06,East,81,5.0,10.0,58,0.00,,,0.00,meteohub,2013-04-09 18:47:00,
2013-04-09 14:52:00,82.0,65.3,30.06,SE,135,3.0,11.0,57,0.00,,,0.00,meteohub,2013-04-09 18:52:00,
2013-04-09 15:02:00,81.5,65.3,30.06,SE,144,6.0,11.0,58,0.00,,,0.00,meteohub,2013-04-09 19:02:00,
2013-04-09 15:07:00,81.5,66.2,30.06,SSE,168,3.0,8.0,60,0.00,,,0.00,meteohub,2013-04-09 19:07:00,
2013-04-09 15:17:00,81.9,65.7,30.06,ESE,113,2.0,11.0,58,0.00,,,0.00,meteohub,2013-04-09 19:17:00,
2013-04-09 15:27:00,81.1,66.4,30.06,SSE,153,5.0,11.0,61,0.00,,,0.00,meteohub,2013-04-09 19:27:00,
2013-04-09 15:32:00,81.0,66.2,30.06,SSE,161,4.0,10.0,61,0.00,,,0.00,meteohub,2013-04-09 19:32:00,
2013-04-09 15:37:00,80.8,66.6,30.06,South,175,3.0,9.0,62,0.00,,,0.00,meteohub,2013-04-09 19:37:00,
2013-04-09 15:47:00,79.7,66.4,30.06,SSE,149,6.0,13.0,64,0.00,,,0.00,meteohub,2013-04-09 19:47:00,
2013-04-09 15:57:00,79.7,66.4,30.05,ESE,121,8.0,11.0,64,0.00,,,0.00,meteohub,2013-04-09 19:57:00,
2013-04-09 16:02:00,79.9,66.2,30.05,SSE,161,2.0,10.0,63,0.00,,,0.00,meteohub,2013-04-09 20:02:00,
2013-04-09 16:12:00,80.8,65.7,30.05,ESE,112,3.0,11.0,60,0.00,,,0.00,meteohub,2013-04-09 20:12:00,
2013-04-09 16:17:00,81.0,65.3,30.05,ENE,76,5.0,14.0,59,0.00,,,0.00,meteohub,2013-04-09 20:17:00,
2013-04-09 16:22:00,81.5,65.8,30.05,East,100,5.0,14.0,59,0.00,,,0.00,meteohub,2013-04-09 20:22:00,
2013-04-09 16:27:00,81.9,66.2,30.05,East,80,3.0,11.0,59,0.00,,,0.00,meteohub,2013-04-09 20:27:00,
2013-04-09 16:32:00,82.0,65.8,30.05,East,98,3.0,11.0,58,0.00,,,0.00,meteohub,2013-04-09 20:32:00,
2013-04-09 16:37:00,81.7,65.5,30.05,East,90,6.0,11.0,58,0.00,,,0.00,meteohub,2013-04-09 20:37:00,
2013-04-09 16:47:00,81.1,65.5,30.05,SE,132,6.0,11.0,59,0.00,,,0.00,meteohub,2013-04-09 20:47:00,
2013-04-09 16:52:00,81.0,65.8,30.04,ESE,111,3.0,10.0,60,0.00,,,0.00,meteohub,2013-04-09 20:52:00,
2013-04-09 16:57:00,80.8,66.0,30.04,ESE,112,4.0,9.0,61,0.00,,,0.00,meteohub,2013-04-09 20:57:00,
2013-04-09 17:02:00,80.6,66.4,30.04,ESE,111,3.0,8.0,62,0.00,,,0.00,meteohub,2013-04-09 21:02:00,
2013-04-09 17:07:00,80.8,66.9,30.04,East,86,1.0,9.0,63,0.00,,,0.00,meteohub,2013-04-09 21:07:00,
2013-04-09 17:17:00,81.7,67.5,30.04,ESE,117,2.0,9.0,62,0.00,,,0.00,meteohub,2013-04-09 21:17:00,
2013-04-09 17:22:00,82.0,66.7,30.04,East,82,8.0,8.0,60,0.00,,,0.00,meteohub,2013-04-09 21:22:00,
2013-04-09 17:27:00,82.2,66.9,30.04,ENE,77,4.0,9.0,60,0.00,,,0.00,meteohub,2013-04-09 21:27:00,
2013-04-09 17:37:00,82.2,66.4,30.04,ESE,117,4.0,10.0,59,0.00,,,0.00,meteohub,2013-04-09 21:37:00,
2013-04-09 17:42:00,82.6,66.7,30.04,ENE,57,5.0,10.0,59,0.00,,,0.00,meteohub,2013-04-09 21:42:00,
2013-04-09 17:52:00,82.6,66.4,30.04,East,99,3.0,9.0,58,0.00,,,0.00,meteohub,2013-04-09 21:52:00,
2013-04-09 17:57:00,82.8,66.0,30.03,NE,44,1.0,10.0,57,0.00,,,0.00,meteohub,2013-04-09 21:57:00,
2013-04-09 18:02:00,82.8,66.0,30.04,East,80,3.0,10.0,57,0.00,,,0.00,meteohub,2013-04-09 22:02:00,
2013-04-09 18:07:00,82.6,65.8,30.04,SE,127,1.0,10.0,57,0.00,,,0.00,meteohub,2013-04-09 22:07:00,
2013-04-09 18:12:00,82.2,66.0,30.04,ESE,110,2.0,10.0,58,0.00,,,0.00,meteohub,2013-04-09 22:12:00,
2013-04-09 18:22:00,81.9,66.2,30.04,East,97,3.0,10.0,59,0.00,,,0.00,meteohub,2013-04-09 22:22:00,
2013-04-09 18:27:00,81.7,66.0,30.04,SE,136,4.0,10.0,59,0.00,,,0.00,meteohub,2013-04-09 22:27:00,
2013-04-09 18:32:00,81.7,66.4,30.04,SE,128,0.0,8.0,60,0.00,,,0.00,meteohub,2013-04-09 22:32:00,
2013-04-09 18:37:00,81.7,66.9,30.04,West,265,10.0,10.0,61,0.00,,,0.00,meteohub,2013-04-09 22:37:00,
2013-04-09 18:42:00,79.0,66.2,30.04,WNW,284,4.0,11.0,65,0.00,,,0.00,meteohub,2013-04-09 22:42:00,
2013-04-09 18:52:00,76.8,66.2,30.04,WNW,290,4.0,11.0,70,0.00,,,0.00,meteohub,2013-04-09 22:52:00,
2013-04-09 18:57:00,76.3,65.8,30.04,West,270,4.0,8.0,70,0.00,,,0.00,meteohub,2013-04-09 22:57:00,
2013-04-09 19:02:00,76.1,66.0,30.05,West,281,9.0,11.0,71,0.00,,,0.00,meteohub,2013-04-09 23:02:00,
2013-04-09 19:07:00,75.6,65.5,30.04,WSW,255,4.0,11.0,71,0.00,,,0.00,meteohub,2013-04-09 23:07:00,
2013-04-09 19:12:00,75.2,65.5,30.05,WNW,283,7.0,11.0,72,0.00,,,0.00,meteohub,2013-04-09 23:12:00,
2013-04-09 19:17:00,75.0,65.3,30.05,West,266,7.0,12.0,72,0.00,,,0.00,meteohub,2013-04-09 23:17:00,
2013-04-09 19:22:00,75.0,65.3,30.05,WNW,282,2.0,12.0,72,0.00,,,0.00,meteohub,2013-04-09 23:22:00,
2013-04-09 19:27:00,75.0,65.3,30.05,West,273,7.0,12.0,72,0.00,,,0.00,meteohub,2013-04-09 23:27:00,
2013-04-09 19:32:00,75.0,65.3,30.05,West,278,5.0,8.0,72,0.00,,,0.00,meteohub,2013-04-09 23:32:00,
2013-04-09 19:37:00,74.8,65.7,30.05,West,259,2.0,8.0,73,0.00,,,0.00,meteohub,2013-04-09 23:37:00,
2013-04-09 19:42:00,74.8,65.1,30.05,West,276,5.0,8.0,72,0.00,,,0.00,meteohub,2013-04-09 23:42:00,
2013-04-09 19:47:00,74.7,65.5,30.05,WSW,257,4.0,8.0,73,0.00,,,0.00,meteohub,2013-04-09 23:47:00,
2013-04-09 19:52:00,74.5,65.3,30.05,West,269,5.0,8.0,73,0.00,,,0.00,meteohub,2013-04-09 23:52:00,
2013-04-09 20:02:00,74.3,65.5,30.05,WNW,290,1.0,7.0,74,0.00,,,0.00,meteohub,2013-04-10 00:02:00,
2013-04-09 20:07:00,74.3,65.8,30.05,West,277,2.0,6.0,75,0.00,,,0.00,meteohub,2013-04-10 00:07:00,
2013-04-09 20:17:00,74.1,65.7,30.06,WNW,285,3.0,5.0,75,0.00,,,0.00,meteohub,2013-04-10 00:17:00,
2013-04-09 20:22:00,73.9,65.5,30.06,NW,304,3.0,5.0,75,0.00,,,0.00,meteohub,2013-04-10 00:22:00,
2013-04-09 20:32:00,73.8,65.7,30.06,WNW,303,2.0,6.0,76,0.00,,,0.00,meteohub,2013-04-10 00:32:00,
2013-04-09 20:37:00,73.8,65.7,30.06,WNW,303,1.0,6.0,76,0.00,,,0.00,meteohub,2013-04-10 00:37:00,
2013-04-09 20:42:00,73.8,66.0,30.06,WNW,303,4.0,4.0,77,0.00,,,0.00,meteohub,2013-04-10 00:42:00,
2013-04-09 20:47:00,73.8,66.0,30.06,NW,305,0.0,4.0,77,0.00,,,0.00,meteohub,2013-04-10 00:47:00,
2013-04-09 20:57:00,73.8,66.4,30.06,NW,306,2.0,4.0,78,0.00,,,0.00,meteohub,2013-04-10 00:57:00,
2013-04-09 21:07:00,73.6,66.7,30.06,NW,307,3.0,4.0,79,0.00,,,0.00,meteohub,2013-04-10 01:07:00,
2013-04-09 21:12:00,73.6,66.7,30.07,NW,309,1.0,4.0,79,0.00,,,0.00,meteohub,2013-04-10 01:12:00,
2013-04-09 21:22:00,73.6,67.1,30.07,NW,315,4.0,5.0,80,0.00,,,0.00,meteohub,2013-04-10 01:22:00,
2013-04-09 21:32:00,73.6,66.7,30.08,NW,316,0.0,4.0,79,0.00,,,0.00,meteohub,2013-04-10 01:32:00,
2013-04-09 21:37:00,73.6,66.7,30.08,NW,316,0.0,4.0,79,0.00,,,0.00,meteohub,2013-04-10 01:37:00,
2013-04-09 21:47:00,73.6,66.7,30.08,NW,316,0.0,2.0,79,0.00,,,0.00,meteohub,2013-04-10 01:47:00,
2013-04-09 21:52:00,73.6,66.7,30.08,ENE,73,1.0,1.0,79,0.00,,,0.00,meteohub,2013-04-10 01:52:00,
2013-04-09 21:57:00,73.8,66.0,30.09,East,99,0.0,7.0,77,0.00,,,0.00,meteohub,2013-04-10 01:57:00,
2013-04-09 22:02:00,73.9,65.8,30.09,East,99,0.0,7.0,76,0.00,,,0.00,meteohub,2013-04-10 02:02:00,
2013-04-09 22:07:00,74.1,66.0,30.09,East,99,0.0,7.0,76,0.00,,,0.00,meteohub,2013-04-10 02:07:00,
2013-04-09 22:17:00,74.5,65.3,30.09,East,82,1.0,5.0,73,0.00,,,0.00,meteohub,2013-04-10 02:17:00,
2013-04-09 22:27:00,75.0,64.6,30.09,East,93,6.0,10.0,70,0.00,,,0.00,meteohub,2013-04-10 02:27:00,
2013-04-09 22:37:00,75.0,64.2,30.09,East,88,7.0,11.0,69,0.00,,,0.00,meteohub,2013-04-10 02:37:00,
2013-04-09 22:42:00,75.0,63.7,30.09,East,87,3.0,11.0,68,0.00,,,0.00,meteohub,2013-04-10 02:42:00,
2013-04-09 22:47:00,74.8,63.5,30.09,East,84,5.0,11.0,68,0.00,,,0.00,meteohub,2013-04-10 02:47:00,
2013-04-09 22:52:00,74.8,63.5,30.09,ESE,115,4.0,10.0,68,0.00,,,0.00,meteohub,2013-04-10 02:52:00,
2013-04-09 22:57:00,74.5,62.8,30.09,ENE,78,5.0,10.0,67,0.00,,,0.00,meteohub,2013-04-10 02:57:00,
2013-04-09 23:02:00,74.3,63.1,30.09,East,100,2.0,10.0,68,0.00,,,0.00,meteohub,2013-04-10 03:02:00,
2013-04-09 23:12:00,73.9,63.1,30.09,ENE,73,2.0,9.0,69,0.00,,,0.00,meteohub,2013-04-10 03:12:00,
2013-04-09 23:17:00,73.8,63.0,30.09,East,101,6.0,11.0,69,0.00,,,0.00,meteohub,2013-04-10 03:17:00,
2013-04-09 23:22:00,73.6,63.1,30.09,East,92,3.0,11.0,70,0.00,,,0.00,meteohub,2013-04-10 03:22:00,
2013-04-09 23:27:00,73.4,63.0,30.09,ENE,76,2.0,10.0,70,0.00,,,0.00,meteohub,2013-04-10 03:27:00,
2013-04-09 23:37:00,73.0,62.2,30.09,SE,126,8.0,13.0,69,0.00,,,0.00,meteohub,2013-04-10 03:37:00,
2013-04-09 23:42:00,73.0,62.2,30.09,East,93,5.0,13.0,69,0.00,,,0.00,meteohub,2013-04-10 03:42:00,
2013-04-09 23:47:00,72.9,62.1,30.09,ESE,103,5.0,13.0,69,0.00,,,0.00,meteohub,2013-04-10 03:47:00,
2013-04-09 23:52:00,72.7,61.9,30.09,ESE,108,3.0,11.0,69,0.00,,,0.00,meteohub,2013-04-10 03:52:00,
2013-04-09 23:57:00,72.5,62.2,30.09,ENE,77,3.0,11.0,70,0.00,,,0.00,meteohub,2013-04-10 03:57:00,